Hourly Weather Kitzbuhel

Today, 21 April, Wednesday

Time Temperature Precipitation Wind Pressure Humidity
00:00 -1°C° 0 mm 2 mps 675 mmHg 92%
01:00 -2°C° 0 mm 2 mps 675 mmHg 91%
02:00 -2°C° 0 mm 2 mps 675 mmHg 90%
03:00 -2°C° 0 mm 2 mps 675 mmHg 89%
04:00 -2°C° 0 mm 2 mps 675 mmHg 89%
05:00 -1°C° 0 mm 2 mps 675 mmHg 86%
06:00 +1°C° 0 mm 2 mps 675 mmHg 83%
07:00 +4°C° 0 mm 1 mps 675 mmHg 81%
08:00 +6°C° 0 mm 1 mps 675 mmHg 74%
09:00 +8°C° 0 mm 1 mps 675 mmHg 68%
10:00 +9°C° 0 mm 0 mps 675 mmHg 62%
11:00 +11°C° 0.1 mm 1 mps 675 mmHg 59%
12:00 +11°C° 0.1 mm 1 mps 675 mmHg 57%
13:00 +12°C° 0.1 mm 1 mps 675 mmHg 54%
14:00 +12°C° 0.1 mm 1 mps 675 mmHg 56%
15:00 +11°C° 0.1 mm 1 mps 674 mmHg 58%
16:00 +11°C° 0.1 mm 1 mps 674 mmHg 60%
17:00 +9°C° 0.3 mm 1 mps 674 mmHg 71%
18:00 +8°C° 0.3 mm 1 mps 675 mmHg 81%
19:00 +6°C° 0.3 mm 1 mps 675 mmHg 92%
20:00 +5°C° 0.4 mm 1 mps 675 mmHg 93%
21:00 +5°C° 0.4 mm 1 mps 676 mmHg 94%
22:00 +4°C° 0.4 mm 1 mps 676 mmHg 96%
23:00 +3°C° 0 mm 2 mps 676 mmHg 95%

Tomorrow, 22 April, Thursday

Time Temperature Precipitation Wind Pressure Humidity
00:00 +2°C° 0 mm 2 mps 676 mmHg 94%
01:00 +2°C° 0 mm 2 mps 676 mmHg 93%
02:00 +2°C° 0 mm 2 mps 676 mmHg 92%
03:00 +1°C° 0 mm 2 mps 676 mmHg 92%
04:00 +1°C° 0 mm 2 mps 676 mmHg 91%
05:00 +3°C° 0 mm 1 mps 676 mmHg 90%
06:00 +4°C° 0 mm 1 mps 676 mmHg 88%
07:00 +5°C° 0 mm 1 mps 677 mmHg 86%
08:00 +6°C° 0.2 mm 1 mps 677 mmHg 86%
09:00 +7°C° 0.2 mm 1 mps 677 mmHg 85%
10:00 +8°C° 0.2 mm 1 mps 677 mmHg 85%
11:00 +7°C° 0.8 mm 1 mps 677 mmHg 89%
12:00 +7°C° 0.8 mm 1 mps 678 mmHg 93%
13:00 +6°C° 0.8 mm 1 mps 678 mmHg 97%
14:00 +6°C° 0.2 mm 1 mps 678 mmHg 97%
15:00 +6°C° 0.2 mm 1 mps 678 mmHg 97%
16:00 +6°C° 0.2 mm 1 mps 678 mmHg 97%
17:00 +5°C° 0.3 mm 1 mps 678 mmHg 97%
18:00 +5°C° 0.3 mm 1 mps 679 mmHg 98%
19:00 +5°C° 0.3 mm 1 mps 679 mmHg 98%
20:00 +4°C° 0.1 mm 1 mps 679 mmHg 97%
21:00 +4°C° 0.1 mm 1 mps 680 mmHg 97%
22:00 +4°C° 0.1 mm 1 mps 680 mmHg 97%
23:00 +4°C° 0 mm 1 mps 680 mmHg 96%

Day after tomorrow, 23 April, Friday

Time Temperature Precipitation Wind Pressure Humidity
00:00 +3°C° 0 mm 1 mps 680 mmHg 95%
01:00 +3°C° 0 mm 1 mps 680 mmHg 95%
02:00 +3°C° 0 mm 1 mps 680 mmHg 95%
03:00 +2°C° 0 mm 1 mps 680 mmHg 95%
04:00 +1°C° 0 mm 0 mps 680 mmHg 96%
05:00 +1°C° 0 mm 0 mps 681 mmHg 93%
06:00 +2°C° 0 mm 0 mps 681 mmHg 91%
07:00 +2°C° 0 mm 0 mps 681 mmHg 89%
08:00 +5°C° 0 mm 1 mps 681 mmHg 82%
09:00 +6°C° 0 mm 1 mps 681 mmHg 74%
10:00 +8°C° 0 mm 1 mps 682 mmHg 67%
11:00 +9°C° 0 mm 1 mps 681 mmHg 63%
12:00 +10°C° 0 mm 1 mps 681 mmHg 58%
13:00 +11°C° 0 mm 1 mps 681 mmHg 53%
14:00 +10°C° 0 mm 2 mps 681 mmHg 54%
15:00 +10°C° 0 mm 2 mps 681 mmHg 54%
16:00 +10°C° 0 mm 2 mps 681 mmHg 54%
17:00 +9°C° 0 mm 1 mps 681 mmHg 63%
18:00 +7°C° 0 mm 1 mps 681 mmHg 72%
19:00 +4°C° 0 mm 1 mps 681 mmHg 81%
20:00 +4°C° 0 mm 1 mps 681 mmHg 84%
21:00 +3°C° 0 mm 1 mps 682 mmHg 86%
22:00 +2°C° 0 mm 1 mps 682 mmHg 88%
23:00 +1°C° 0 mm 1 mps 682 mmHg 89%

24 April, Saturday

Time Temperature Precipitation Wind Pressure Humidity
00:00 +1°C° 0 mm 1 mps 682 mmHg 89%
01:00 +1°C° 0 mm 1 mps 681 mmHg 89%
02:00 +1°C° 0 mm 1 mps 681 mmHg 89%
03:00 0°C° 0 mm 1 mps 681 mmHg 89%
04:00 0°C° 0 mm 1 mps 681 mmHg 88%
05:00 +2°C° 0 mm 1 mps 681 mmHg 82%
06:00 +3°C° 0 mm 0 mps 681 mmHg 76%
07:00 +4°C° 0 mm 0 mps 681 mmHg 70%
08:00 +6°C° 0 mm 0 mps 681 mmHg 64%
09:00 +9°C° 0 mm 1 mps 681 mmHg 58%
10:00 +11°C° 0 mm 1 mps 681 mmHg 53%
11:00 +12°C° 0 mm 1 mps 680 mmHg 51%
12:00 +13°C° 0 mm 2 mps 680 mmHg 49%
13:00 +14°C° 0 mm 2 mps 680 mmHg 47%
14:00 +13°C° 0 mm 2 mps 680 mmHg 48%
15:00 +13°C° 0 mm 2 mps 680 mmHg 50%
16:00 +13°C° 0 mm 2 mps 679 mmHg 52%
17:00 +10°C° 0 mm 2 mps 679 mmHg 62%
18:00 +8°C° 0 mm 1 mps 680 mmHg 73%
19:00 +6°C° 0 mm 1 mps 680 mmHg 84%
20:00 +5°C° 0 mm 1 mps 680 mmHg 86%
21:00 +4°C° 0 mm 1 mps 680 mmHg 89%
22:00 +3°C° 0 mm 1 mps 681 mmHg 91%
23:00 +3°C° 0 mm 1 mps 680 mmHg 92%

25 April, Sunday

Time Temperature Precipitation Wind Pressure Humidity
00:00 +2°C° 0 mm 1 mps 680 mmHg 92%
01:00 +2°C° 0 mm 1 mps 680 mmHg 93%
02:00 +2°C° 0 mm 1 mps 680 mmHg 93%
03:00 +2°C° 0 mm 1 mps 680 mmHg 93%
04:00 +1°C° 0 mm 1 mps 680 mmHg 93%
05:00 +3°C° 0 mm 1 mps 680 mmHg 87%
06:00 +3°C° 0 mm 0 mps 680 mmHg 81%
07:00 +5°C° 0 mm 0 mps 680 mmHg 75%
08:00 +8°C° 0 mm 1 mps 680 mmHg 67%
09:00 +10°C° 0 mm 1 mps 680 mmHg 59%
10:00 +12°C° 0 mm 1 mps 680 mmHg 51%
11:00 +13°C° 0 mm 1 mps 679 mmHg 48%
12:00 +14°C° 0 mm 2 mps 679 mmHg 44%
13:00 +15°C° 0 mm 2 mps 679 mmHg 41%
14:00 +14°C° 0 mm 2 mps 678 mmHg 42%
15:00 +14°C° 0 mm 2 mps 678 mmHg 44%
16:00 +14°C° 0 mm 2 mps 678 mmHg 45%
17:00 +12°C° 0 mm 2 mps 678 mmHg 56%
18:00 +9°C° 0 mm 1 mps 677 mmHg 68%
19:00 +7°C° 0 mm 1 mps 677 mmHg 80%
20:00 +6°C° 0 mm 1 mps 677 mmHg 82%
21:00 +6°C° 0 mm 1 mps 677 mmHg 85%
22:00 +5°C° 0 mm 1 mps 677 mmHg 87%
23:00 +5°C° 0 mm 1 mps 677 mmHg 87%

26 April, Monday

Time Temperature Precipitation Wind Pressure Humidity
00:00 +5°C° 0 mm 1 mps 677 mmHg 88%
01:00 +4°C° 0 mm 2 mps 676 mmHg 88%
02:00 +5°C° 0 mm 1 mps 676 mmHg 89%
03:00 +5°C° 0 mm 1 mps 676 mmHg 89%
04:00 +5°C° 0 mm 1 mps 676 mmHg 89%
05:00 +7°C° 0 mm 1 mps 676 mmHg 84%
06:00 +8°C° 0 mm 1 mps 676 mmHg 79%
07:00 +9°C° 0 mm 1 mps 675 mmHg 74%
08:00 +11°C° 0 mm 1 mps 675 mmHg 67%
09:00 +13°C° 0 mm 1 mps 675 mmHg 61%
10:00 +15°C° 0 mm 1 mps 675 mmHg 54%
11:00 +15°C° 0.1 mm 1 mps 675 mmHg 55%
12:00 +15°C° 0.1 mm 1 mps 675 mmHg 55%
13:00 +15°C° 0.1 mm 2 mps 675 mmHg 56%
14:00 +15°C° 0.2 mm 1 mps 674 mmHg 62%
15:00 +14°C° 0.2 mm 1 mps 674 mmHg 67%
16:00 +13°C° 0.2 mm 1 mps 674 mmHg 73%
17:00 +12°C° 0.3 mm 1 mps 673 mmHg 78%
18:00 +11°C° 0.3 mm 1 mps 673 mmHg 83%
19:00 +10°C° 0.3 mm 1 mps 673 mmHg 89%
20:00 +10°C° 0.1 mm 1 mps 672 mmHg 89%
21:00 +10°C° 0.1 mm 1 mps 672 mmHg 90%
22:00 +8°C° 0.1 mm 2 mps 672 mmHg 91%
23:00 +8°C° 0 mm 2 mps 672 mmHg 91%
Show more

We Need Your Consent

Meteoprog and our Service Providers may store and access personal data such as cookies, device identifiers or other similar technologies on your device and process such data to personalise content and ads, as well as provide social media features and to analyse the traffic.

  • Store and/or access information on your device

    Cookies, device identifiers or other information can be stored or accessed on your device for the purposes indicated above.

  • Personalised ads and content, ad and content measurement, audience insights, and products development

    Ads and content can be personalised based on a profile. More data can be added to better personalise ads and content. Ad and content performance can be measured. Insights about the audience who saw the ads and content can be derived. Such data can be used to develop or improve user’s experience, systems and software.

By clicking ‘I Agree’ you will allow the use of indicated cookies, device identifiers, web beacons or other similar technologies. Your settings can be changed in the browser on your device.

For certain purposes, legitimate interests may be relied on, rather than consent. You can read more about this in our Privacy and Cookie Policy.